Skip Page Navigation
NASA JPL Caltech
NASA Logo - Jet Propulsion Laboratory + View the NASA Portal
+ Near-Earth Object (NEO) Program
Search JPL
JPL Home Earth Solar System Stars & Galaxies Technology
JPL Solar System Dynamics
BODIES ORBITS EPHEMERIDES TOOLS PHYSICAL DATA DISCOVERY FAQ SITE MAP
JPL Small-Body Database Browser
Search: [ help ]  
(2007 DT103)
Classification: Apollo [NEO, PHA]          SPK-ID: 3371145
Ephemeris | Orbit Diagram | Orbital Elements | Physical Parameters | Close-Approach Data ]

[ hide orbit diagram ]
Orbit Diagram
Note: Make sure you have Java enabled on your browser to see the applet. This applet is provided as a 3D orbit visualization tool. The applet was implemented using 2-body methods, and hence should not be used for determining accurate long-term trajectories (over several years or decades) or planetary encounter circumstances. For accurate long-term ephemerides, please instead use our Horizons system.
Orbit Viewer

Additional Notes: the orbits shown in the applet are color coded. The planets are white lines, and the asteroid/comet is a blue line. The bright white line indicates the portion of the orbit that is above the ecliptic plane, and the darker portion is below the ecliptic plane. Likewise for the asteroid/comet orbit, the light blue indicates the portion above the ecliptic plane, and the dark blue the portion below the ecliptic plane.

Orbit Viewer applet originally written and kindly provided by Osamu Ajiki (AstroArts), and further modified by Ron Baalke (JPL).


Orbital Elements at Epoch 2456400.5 (2013-Apr-18.0) TDB
Reference: JPL 70 (heliocentric ecliptic J2000)
 Element Value Uncertainty (1-sigma)   Units 
e .575443740337283 4.8612e-07  
a 2.205937814662728 2.2929e-06 AU
q .9365447076417556 1.0347e-07 AU
i 5.453842891045777 4.0364e-06 deg
node 137.0357974453889 6.4854e-06 deg
peri 134.1401141729598 1.0284e-05 deg
M 275.8206641665227 0.0010061 deg
tp 2456680.328097166604
(2014-Jan-22.82809717)
0.0037807 JED
period 1196.708360579803
3.28
0.0018658
5.108e-06
d
yr
n .3008251733326076 4.6903e-07 deg/d
Q 3.4753309216837 3.6123e-06 AU
  Orbit Determination Parameters
   # obs. used (total)      772  
   # delay obs. used      1  
   # Doppler obs. used      2  
   data-arc span      206 days  
   first obs. used      2007-02-26  
   last obs. used      2007-09-20  
   planetary ephem.      DE405  
   SB-pert. ephem.      SB405-CPV-2  
   condition code      2  
   fit RMS      .72684  
   data source      ORB  
   producer      Otto Matic  
   solution date      2011-Sep-14 20:16:11  

Additional Information
 Earth MOID = .0125501 AU 
 T_jup = 3.419 
[ show covariance matrix ]

Ephemeris | Orbit Diagram | Orbital Elements | Physical Parameters | Close-Approach Data ]

Physical Parameter Table
Parameter Symbol Value Units Sigma Reference Notes
absolute magnitude H 19.248 mag .6772 70 autocmod 2.5a
rotation period rot_per 2.5845 h n/a Asteroid Lightcurve DataBase (Rev. 2013-May-01) Published Reference List:
[Pravec, P.; Wolf, M.; Sarounova, L. (2007) http://www.asu.cas.cz/~ppravec/neo.htm]
[Apostolovska, G.; Ivanova, V. Kostov, A. (2009) Minor Planet Bul. 36, 27-28.]

[ show close-approach data ]
Ephemeris | Orbit Diagram | Orbital Elements | Physical Parameters | Close-Approach Data ]
ABOUT SSD CREDITS/AWARDS PRIVACY/COPYRIGHT GLOSSARY LINKS
FirstGov 2013-May-21 11:03 UT
(server date/time)  
NASA Home Page
Site Manager:   Donald K. Yeomans
Webmaster  Alan B. Chamberlin